Montello, Wisconsin, United States (53949)
Lat: 43.79N, Lon: 89.32W
Wx Zone: WIZ046
Local Info
Past Weather Observations for Friday, July 22, 2016

NOTE: This archive is for the closest National Weather Service station to Montello. Information may differ from the station used for current weather conditions.

Click here for Long-term Archive

Time Weather Temperature Dewpoint Humidity Pressure Winds Precip Visibility
23:50
Obscured
Fog
75°F / 24°C 73°F / 23°C 94% 30.01 in
(1016 mb)
Calm - 1/4SM
23:30
Obscured
Fog And Mist
75°F / 24°C 73°F / 23°C 94% 30.04 in
(1017 mb)
Calm - 1 3/4SM
23:10
Obscured
Fog And Mist
77°F / 25°C 73°F / 23°C 89% 30.01 in
(1016 mb)
Calm - 1SM
22:50
Clear
Fog And Mist
77°F / 25°C 75°F / 24°C 94% 30.01 in
(1016 mb)
Calm - 5SM
22:30
Clear
79°F / 26°C 75°F / 24°C 89% 30.01 in
(1016 mb)
Calm - 10SM
22:10
Clear
77°F / 25°C 73°F / 23°C 89% 30.01 in
(1016 mb)
Calm - 10SM
21:50
Clear
77°F / 25°C 75°F / 24°C 94% 30.01 in
(1016 mb)
Calm - 10SM
21:30
Clear
79°F / 26°C 75°F / 24°C 89% 30.01 in
(1016 mb)
Calm - 10SM
21:10
Clear
79°F / 26°C 75°F / 24°C 89% 30.01 in
(1016 mb)
Calm - 10SM
20:50
Clear
79°F / 26°C 75°F / 24°C 89% 30.01 in
(1016 mb)
Calm - 10SM
20:30
Partly Cloudy
79°F / 26°C 75°F / 24°C 89% 29.98 in
(1015 mb)
Calm - 10SM
20:10
Mostly Cloudy
81°F / 27°C 77°F / 25°C 89% 29.98 in
(1015 mb)
Calm - 10SM
19:50
Partly Cloudy
82°F / 28°C 77°F / 25°C 84% 29.98 in
(1015 mb)
SW 3.5 mph
(SW 6 kph)
- 10SM
19:30
Mostly Cloudy
82°F / 28°C 77°F / 25°C 84% 29.98 in
(1015 mb)
SSW 3.5 mph
(SSW 6 kph)
- 10SM
19:10
Clear
82°F / 28°C 77°F / 25°C 84% 29.98 in
(1015 mb)
SSW 3.5 mph
(SSW 6 kph)
- 10SM
18:50
Clear
84°F / 29°C 75°F / 24°C 74% 29.98 in
(1015 mb)
SW 3.5 mph
(SW 6 kph)
- 10SM
18:30
Clear
86°F / 30°C 75°F / 24°C 70% 29.98 in
(1015 mb)
SW 3.5 mph
(SW 6 kph)
- 10SM
18:10
Clear
86°F / 30°C 75°F / 24°C 70% 29.98 in
(1015 mb)
Calm - 10SM
17:50
Clear
88°F / 31°C 75°F / 24°C 66% 29.98 in
(1015 mb)
SSW 4.6 mph
(SSW 7 kph)
- 10SM
17:30
Clear
88°F / 31°C 75°F / 24°C 66% 29.98 in
(1015 mb)
SSW 5.8 mph
(SSW 9 kph)
- 10SM
17:10
Clear
88°F / 31°C 75°F / 24°C 66% 29.98 in
(1015 mb)
SW 4.6 mph
(SW 7 kph)
- 10SM
16:50
Partly Cloudy
90°F / 32°C 75°F / 24°C 63% 29.98 in
(1015 mb)
SSW 4.6 mph
(SSW 7 kph)
- 10SM
16:30
Clear
88°F / 31°C 75°F / 24°C 66% 29.98 in
(1015 mb)
Calm - 10SM
16:10
Clear
86°F / 30°C 75°F / 24°C 70% 29.98 in
(1015 mb)
Calm - 10SM
15:50
Partly Cloudy
88°F / 31°C 75°F / 24°C 66% 29.98 in
(1015 mb)
SSW 3.5 mph
(SSW 6 kph)
- 10SM
15:30
Overcast
88°F / 31°C 75°F / 24°C 66% 30.01 in
(1016 mb)
SW 5.8 mph
(SW 9 kph)
- 10SM
15:10
Overcast
88°F / 31°C 75°F / 24°C 66% 30.01 in
(1016 mb)
SW 4.6 mph
(SW 7 kph)
- 10SM
14:50
Overcast
88°F / 31°C 75°F / 24°C 66% 30.01 in
(1016 mb)
SSW 4.6 mph
(SSW 7 kph)
- 10SM
14:30
Mostly Cloudy
88°F / 31°C 77°F / 25°C 70% 30.01 in
(1016 mb)
S 3.5 mph
(S 6 kph)
- 10SM
14:10
Partly Cloudy
88°F / 31°C 75°F / 24°C 66% 30.01 in
(1016 mb)
SW 4.6 mph
(SW 7 kph)
- 10SM
13:50
Partly Cloudy
86°F / 30°C 73°F / 23°C 66% 30.04 in
(1017 mb)
SSW 3.5 mph
(SSW 6 kph)
- 10SM
13:30
Partly Cloudy
88°F / 31°C 75°F / 24°C 66% 30.04 in
(1017 mb)
Calm - 10SM
13:10
Partly Cloudy
86°F / 30°C 75°F / 24°C 70% 30.04 in
(1017 mb)
SSW 5.8 mph
(SSW 9 kph)
- 10SM
12:50
Partly Cloudy
86°F / 30°C 73°F / 23°C 66% 30.04 in
(1017 mb)
SSW 4.6 mph
(SSW 7 kph)
- 10SM
12:30
Overcast
86°F / 30°C 75°F / 24°C 70% 30.04 in
(1017 mb)
SW 6.9 mph
(SW 11 kph)
- 10SM
12:10
Mostly Cloudy
84°F / 29°C 73°F / 23°C 70% 30.04 in
(1017 mb)
S 4.6 mph
(S 7 kph)
- 10SM
11:50
Mostly Cloudy
84°F / 29°C 73°F / 23°C 70% 30.04 in
(1017 mb)
SSW 3.5 mph
(SSW 6 kph)
- 10SM
11:30
Mostly Cloudy
84°F / 29°C 73°F / 23°C 70% 30.04 in
(1017 mb)
SSE 4.6 mph
(SSE 7 kph)
- 10SM
11:10
Mostly Cloudy
84°F / 29°C 73°F / 23°C 70% 30.04 in
(1017 mb)
S 4.6 mph
(S 7 kph)
- 10SM
10:50
Partly Cloudy
84°F / 29°C 73°F / 23°C 70% 30.04 in
(1017 mb)
SSW 3.5 mph
(SSW 6 kph)
- 10SM
10:30
Partly Cloudy
82°F / 28°C 73°F / 23°C 74% 30.04 in
(1017 mb)
Calm - 10SM
10:10
Mostly Cloudy
81°F / 27°C 72°F / 22°C 74% 30.04 in
(1017 mb)
SSW 4.6 mph
(SSW 7 kph)
- 10SM
09:50
Partly Cloudy
81°F / 27°C 72°F / 22°C 74% 30.04 in
(1017 mb)
W 3.5 mph
(W 6 kph)
- 10SM
09:30
Mostly Cloudy
81°F / 27°C 72°F / 22°C 74% 30.04 in
(1017 mb)
Calm - 10SM
09:10
Overcast
81°F / 27°C 72°F / 22°C 74% 30.04 in
(1017 mb)
SSW 3.5 mph
(SSW 6 kph)
- 10SM
08:50
Overcast
79°F / 26°C 72°F / 22°C 79% 30.04 in
(1017 mb)
SSW 4.6 mph
(SSW 7 kph)
- 10SM
08:30
Overcast
77°F / 25°C 70°F / 21°C 79% 30.04 in
(1017 mb)
SSW 4.6 mph
(SSW 7 kph)
- 10SM
08:10
Overcast
77°F / 25°C 70°F / 21°C 79% 30.04 in
(1017 mb)
W 4.6 mph
(W 7 kph)
- 10SM
07:50
Overcast
75°F / 24°C 70°F / 21°C 83% 30.04 in
(1017 mb)
W 5.8 mph
(W 9 kph)
- 10SM
07:30
Overcast
75°F / 24°C 70°F / 21°C 83% 30.04 in
(1017 mb)
SSW 3.5 mph
(SSW 6 kph)
- 10SM
07:10
Mostly Cloudy
73°F / 23°C 70°F / 21°C 89% 30.04 in
(1017 mb)
SW 4.6 mph
(SW 7 kph)
- 10SM
06:50
Partly Cloudy
73°F / 23°C 70°F / 21°C 89% 30.04 in
(1017 mb)
SSW 5.8 mph
(SSW 9 kph)
- 10SM
06:30
Clear
72°F / 22°C 68°F / 20°C 88% 30.04 in
(1017 mb)
Calm - 10SM
06:10
Clear
70°F / 21°C 68°F / 20°C 94% 30.04 in
(1017 mb)
WNW 3.5 mph
(WNW 6 kph)
- 10SM
05:50
Clear
68°F / 20°C 66°F / 19°C 94% 30.04 in
(1017 mb)
Calm - 10SM
04:30
Clear
68°F / 20°C 66°F / 19°C 94% 30.01 in
(1016 mb)
Calm - 10SM
04:10
Clear
68°F / 20°C 66°F / 19°C 94% 30.01 in
(1016 mb)
Calm - 10SM
03:50
Clear
68°F / 20°C 66°F / 19°C 94% 29.98 in
(1015 mb)
SW 4.6 mph
(SW 7 kph)
- 10SM
03:30
Clear
68°F / 20°C 64°F / 18°C 88% 30.01 in
(1016 mb)
SW 3.5 mph
(SW 6 kph)
- 10SM
03:10
Clear
68°F / 20°C 66°F / 19°C 94% 29.98 in
(1015 mb)
Calm - 10SM
02:50
Clear
68°F / 20°C 66°F / 19°C 94% 29.98 in
(1015 mb)
SW 3.5 mph
(SW 6 kph)
- 10SM
02:30
Clear
68°F / 20°C 66°F / 19°C 94% 29.98 in
(1015 mb)
SW 4.6 mph
(SW 7 kph)
- 10SM
02:10
Clear
68°F / 20°C 66°F / 19°C 94% 29.98 in
(1015 mb)
Calm - 10SM
01:50
Clear
68°F / 20°C 66°F / 19°C 94% 29.98 in
(1015 mb)
Calm - 10SM
01:30
Clear
68°F / 20°C 66°F / 19°C 94% 29.98 in
(1015 mb)
Calm - 10SM
01:10
Clear
68°F / 20°C 66°F / 19°C 94% 29.98 in
(1015 mb)
SSE 4.6 mph
(SSE 7 kph)
- 10SM
00:50
Clear
68°F / 20°C 66°F / 19°C 94% 29.95 in
(1014 mb)
Calm - 10SM
00:30
Clear
70°F / 21°C 66°F / 19°C 88% 29.98 in
(1015 mb)
Calm - 10SM
00:10
Clear
70°F / 21°C 66°F / 19°C 88% 29.98 in
(1015 mb)
Calm - 10SM
Time Weather Temperature Dewpoint Humidity Pressure Winds Precip Visibility


Weather for websites

WeatherForYou.com, LLC is not responsible for any damages or problems caused by this service. Current weather conditions are obtained from the closest station including government and personal stations which may have varying degrees of accuracy. Weather forecasts are derived from the NOAA NDFD. Like all things, this site belongs to Jesus Christ... He just trusts us to maintain it. If you have any questions or comments email webmaster@weatherforyou.com

Copyright © 2016, WeatherForYou.com LLC. All rights reserved.